GSAT-14

Last updated on Wed Sep 17 2025 00:02:48 GMT+0000 (Coordinated Universal Time)

1 39498U 14001A 25259.59837874 -.00000096 00000+0 00000+0 0 9997 2 39498 0.0409 271.5404 0004306 298.9463 74.6814 1.00271403 42638
UTC large
Height (km)
Speed (km/s)
/
Latitude / Longitude
Inclination (degrees)
Orbital Period (minutes)
Azimuth
Elevation
Range (km)
Doppler Factor

Next 0 passes for location: London (51.5072 / 0.1276)

Sorry there are no passes over London.